Location: Slave Lake
(55.2830°N, 114.7830°W)
Time: 10:45:03
(UTC-06:00)

Amateur Radio Satellites - All Passes

Search period start: 21 October 2014 10:15
Search period end: 22 October 2014 10:15
Location: Slave Lake, 55.2830°N, 114.7830°W

Satellite Date Start Highest point End Downlink Frequencies (MHz)
Time Altitude Azimuth
JAS-2 21 Oct 10:18:41 10:23:44 21° 318° (NW) 10:29:00 435.800 - 435.900 CW/SSB, 435.910 FM
HO-68 21 Oct 10:22:30 10:29:24 46° 98° (E) 10:36:15 435.675 MHz FM
SO-67 21 Oct 10:36:42 10:38:21 13° 304° (WNW) 10:40:01 435.3500 MHz FM
Sapphire 21 Oct 10:40:31 10:44:54 24° 3° (N) 10:49:17 437.095 MHz 1200 baud AX-25 AFSK
ZACube-1 21 Oct 10:50:25 10:52:55 15° 86° (E) 10:55:22 437.345 MHz
Saudisat 1A 21 Oct 11:00:39 11:05:04 82° 319° (NW) 11:09:32 436.775 MHz
MaSat-1 21 Oct 11:00:53 11:03:20 25° 246° (WSW) 11:05:34 437.345 MHz
AO-7 21 Oct 11:02:10 11:06:31 16° 349° (N) 11:10:53 29.400 - 29.500 MHz
UKube-1 21 Oct 11:02:11 11:06:16 37° 97° (E) 11:10:20 145.840 MHz, 145.915 MHz
PCSat 21 Oct 11:03:54 11:08:23 25° 10° (N) 11:12:52 145.825 MHz
RS-15 21 Oct 11:20:03 11:26:24 17° 265° (W) 11:32:54 29.354 - 29.394 USB, Beacon 29.352 USB
JAS-1B 21 Oct 11:25:47 11:27:04 11° 33° (NNE) 11:28:21 435.800 - 435.900 CW/SSB
FUNcube-1 21 Oct 11:35:11 11:39:11 34° 95° (E) 11:43:05 145.950 - 145.970 MHz USB
Oscar 11 21 Oct 11:47:12 11:51:33 87° 104° (ESE) 11:55:52 145.825 FM, Beacon 2401.500 USB
Oscar 16 21 Oct 11:53:36 11:56:11 14° 45° (NE) 11:58:47 437.025 USB, Beacon 2401.1428
Uribyol 2 21 Oct 12:08:19 12:09:14 10° 38° (NE) 12:10:08 436.500 FM
HO-68 21 Oct 12:10:20 12:17:19 55° 300° (WNW) 12:24:16 435.675 MHz FM
ITAMSAT 1 21 Oct 12:13:04 12:14:13 11° 39° (NE) 12:15:23 435.822 SSB
AO-Echo 21 Oct 12:20:07 12:22:05 12° 43° (NE) 12:24:05 ?
Sapphire 21 Oct 12:24:43 12:29:46 37° 28° (NNE) 12:34:48 437.095 MHz 1200 baud AX-25 AFSK
ZACube-1 21 Oct 12:25:36 12:30:00 86° 286° (WNW) 12:34:16 437.345 MHz
UKube-1 21 Oct 12:38:28 12:42:29 36° 297° (WNW) 12:46:28 145.840 MHz, 145.915 MHz
Saudisat 1A 21 Oct 12:41:15 12:45:12 31° 341° (NNW) 12:49:10 436.775 MHz
Oscar 19 21 Oct 12:45:24 12:49:42 27° 56° (ENE) 12:53:59 437.125 CW, 437.150 USB
PCSat 21 Oct 12:47:48 12:53:03 46° 35° (NE) 12:58:17 145.825 MHz
AO-7 21 Oct 12:51:29 12:56:16 17° 17° (NNE) 13:01:02 29.400 - 29.500 MHz
AO-27 21 Oct 12:54:36 12:58:08 19° 49° (NE) 13:01:42 436.795 MHz FM
JAS-1B 21 Oct 13:10:55 13:16:12 37° 58° (ENE) 13:21:24 435.800 - 435.900 CW/SSB
FUNcube-1 21 Oct 13:11:36 13:15:37 37° 296° (WNW) 13:19:32 145.950 - 145.970 MHz USB
Oscar 11 21 Oct 13:24:21 13:27:12 18° 306° (NW) 13:30:04 145.825 FM, Beacon 2401.500 USB
Oscar 16 21 Oct 13:29:31 13:34:33 54° 66° (ENE) 13:39:34 437.025 USB, Beacon 2401.1428
Uribyol 2 21 Oct 13:42:37 13:47:23 37° 60° (ENE) 13:52:09 436.500 FM
KITSAT 1 21 Oct 13:42:47 13:50:04 39° 114° (ESE) 13:57:22 435.175 FM
Oscar 10/S400 21 Oct 13:45:17 13:51:23 12° 141° (SE) 13:57:46 145.825 - 145.975 CW/USB, Beacon 145.810 USB
Gurwin Techsat 1B 21 Oct 13:46:12 13:50:24 25° 54° (NE) 13:54:37 435.225 FM
ITAMSAT 1 21 Oct 13:47:38 13:52:25 38° 61° (ENE) 13:57:14 435.822 SSB
AO-Echo 21 Oct 13:55:01 13:59:43 47° 65° (ENE) 14:04:36 ?
HO-68 21 Oct 13:58:48 14:03:40 20° 324° (NW) 14:08:32 435.675 MHz FM
TMSAT-1 21 Oct 13:59:56 14:04:07 24° 54° (NE) 14:08:18 436.925 FM
ZACube-1 21 Oct 14:03:03 14:05:47 17° 307° (NW) 14:08:29 437.345 MHz
Sapphire 21 Oct 14:08:14 14:13:41 77° 232° (SW) 14:19:07 437.095 MHz 1200 baud AX-25 AFSK
SO-50 21 Oct 14:10:52 14:13:21 15° 112° (ESE) 14:15:52 436.795 FM
Saudisat 1A 21 Oct 14:22:12 14:25:54 25° 5° (N) 14:29:36 436.775 MHz
Oscar 19 21 Oct 14:23:34 14:28:43 67° 257° (WSW) 14:33:52 437.125 CW, 437.150 USB
PCSat 21 Oct 14:31:21 14:36:39 54° 237° (WSW) 14:41:54 145.825 MHz
AO-27 21 Oct 14:31:42 14:36:55 75° 70° (ENE) 14:42:10 436.795 MHz FM
AO-7 21 Oct 14:39:38 14:46:45 34° 43° (NE) 14:53:53 29.400 - 29.500 MHz
JAS-1B 21 Oct 15:01:13 15:06:55 48° 260° (W) 15:12:26 435.800 - 435.900 CW/SSB
Oscar 16 21 Oct 15:09:37 15:14:11 31° 266° (W) 15:18:46 437.025 USB, Beacon 2401.1428
ISS 21 Oct 15:13:11 15:14:10 11° 142° (SE) 15:15:10 145.800 FM
Uribyol 2 21 Oct 15:21:44 15:26:47 48° 261° (W) 15:31:52 436.500 FM
Gurwin Techsat 1B 21 Oct 15:24:33 15:29:53 80° 255° (WSW) 15:35:15 435.225 FM
JAS-2 21 Oct 15:26:41 15:30:14 16° 34° (NE) 15:34:00 435.800 - 435.900 CW/SSB, 435.910 FM
ITAMSAT 1 21 Oct 15:26:51 15:31:52 46° 261° (W) 15:36:56 435.822 SSB
AO-Echo 21 Oct 15:34:14 15:38:41 34° 266° (W) 15:43:17 ?
KITSAT 1 21 Oct 15:36:53 15:45:00 78° 318° (NW) 15:53:09 435.175 FM
Uosat F 21 Oct 15:37:23 15:41:34 27° 56° (NE) 15:45:46 435.120 FM
TMSAT-1 21 Oct 15:38:13 15:43:32 81° 255° (WSW) 15:48:54 436.925 FM
HO-68 21 Oct 15:47:58 15:48:47 10° 350° (N) 15:49:35 435.675 MHz FM
SO-50 21 Oct 15:48:34 15:53:05 69° 133° (SE) 15:57:47 436.795 FM
Sapphire 21 Oct 15:52:42 15:56:20 18° 253° (WSW) 15:59:56 437.095 MHz 1200 baud AX-25 AFSK
UOSAT-12 21 Oct 15:54:25 15:57:05 15° 112° (ESE) 15:59:47 437.025 FM, 437.400 FM
Saudisat 1A 21 Oct 16:02:10 16:06:25 43° 29° (NNE) 16:10:40 436.775 MHz
Oscar 19 21 Oct 16:06:47 16:09:05 13° 277° (W) 16:11:23 437.125 CW, 437.150 USB
AO-27 21 Oct 16:12:59 16:17:01 22° 271° (W) 16:21:05 436.795 MHz FM
PCSat 21 Oct 16:17:06 16:18:55 12° 258° (WSW) 16:20:43 145.825 MHz
AO-7 21 Oct 16:30:28 16:38:46 89° 67° (ENE) 16:47:07 29.400 - 29.500 MHz
ISS 21 Oct 16:47:08 16:50:07 31° 161° (SSE) 16:53:07 145.800 FM
Gurwin Techsat 1B 21 Oct 17:07:28 17:10:45 16° 275° (W) 17:14:02 435.225 FM
JAS-2 21 Oct 17:07:51 17:13:35 44° 59° (ENE) 17:20:04 435.800 - 435.900 CW/SSB, 435.910 FM
Uosat F 21 Oct 17:15:01 17:20:01 66° 257° (WSW) 17:25:04 435.120 FM
TMSAT-1 21 Oct 17:21:02 17:24:20 17° 275° (W) 17:27:40 436.925 FM
SO-50 21 Oct 17:29:37 17:33:59 39° 335° (NNW) 17:38:28 436.795 FM
HO-68 21 Oct 17:31:27 17:33:28 11° 16° (NNE) 17:35:28 435.675 MHz FM
UOSAT-12 21 Oct 17:31:48 17:36:28 69° 133° (SE) 17:41:12 437.025 FM, 437.400 FM
KITSAT 1 21 Oct 17:33:54 17:41:32 43° 345° (NNW) 17:49:11 435.175 FM
Hamsat 21 Oct 17:35:13 17:39:02 34° 64° (ENE) 17:42:51 145.90 MHz
Saudisat 1A 21 Oct 17:41:49 17:46:08 52° 231° (SW) 17:50:26 436.775 MHz
SO-67 21 Oct 18:11:14 18:12:39 12° 56° (NE) 18:14:05 435.3500 MHz FM
ISS 21 Oct 18:23:15 18:26:28 45° 181° (S) 18:29:41 145.800 FM
AO-7 21 Oct 18:25:43 18:32:38 29° 270° (W) 18:39:36 29.400 - 29.500 MHz
OPAL 21 Oct 18:36:45 18:41:24 37° 99° (E) 18:45:58 ?
JAS-2 21 Oct 18:52:47 18:58:37 51° 263° (W) 19:05:17 435.800 - 435.900 CW/SSB, 435.910 FM
Uosat F 21 Oct 18:57:44 18:59:50 12° 277° (W) 19:01:56 435.120 FM
Hamsat 21 Oct 19:11:08 19:15:01 35° 264° (W) 19:18:54 145.90 MHz
SO-50 21 Oct 19:11:37 19:15:37 27° 360° (N) 19:19:42 436.795 FM
UOSAT-12 21 Oct 19:12:29 19:16:56 40° 335° (NNW) 19:21:26 437.025 FM, 437.400 FM
HO-68 21 Oct 19:13:20 19:18:48 24° 42° (NE) 19:24:17 435.675 MHz FM
Saudisat 1A 21 Oct 19:24:11 19:24:46 10° 251° (WSW) 19:25:21 436.775 MHz
KITSAT 1 21 Oct 19:31:13 19:38:50 42° 13° (NNE) 19:46:26 435.175 FM
SO-67 21 Oct 19:41:39 19:45:06 89° 76° (ENE) 19:48:35 435.3500 MHz FM
AO-40 21 Oct 19:46:00 00:42:41 28° 184° (S) 06:15:51 Beacon 2401.320
ISS 21 Oct 19:59:51 20:02:47 28° 201° (SSW) 20:05:42 145.800 FM
STRAND 1 21 Oct 20:15:15 20:20:11 43° 98° (E) 20:25:05 ?
OPAL 21 Oct 20:15:39 20:20:25 45° 300° (WNW) 20:25:07 ?
UKube-1 21 Oct 20:30:32 20:33:13 16° 52° (NE) 20:35:53 145.840 MHz, 145.915 MHz
JAS-2 21 Oct 20:43:52 20:45:41 11° 288° (WNW) 20:47:34 435.800 - 435.900 CW/SSB, 435.910 FM
SO-50 21 Oct 20:52:50 20:57:17 38° 23° (NNE) 21:01:49 436.795 FM
UOSAT-12 21 Oct 20:54:07 20:58:10 27° 359° (N) 21:02:13 437.025 FM, 437.400 FM
HO-68 21 Oct 20:58:22 21:05:29 71° 65° (ENE) 21:12:39 435.675 MHz FM
FUNcube-1 21 Oct 21:04:27 21:06:57 15° 51° (NE) 21:09:25 145.950 - 145.970 MHz USB
Oscar 11 21 Oct 21:13:53 21:17:33 28° 61° (ENE) 21:21:14 145.825 FM, Beacon 2401.500 USB
SO-67 21 Oct 21:18:01 21:18:39 10° 275° (W) 21:19:18 435.3500 MHz FM
KITSAT 1 21 Oct 21:27:20 21:35:28 74° 40° (NE) 21:43:33 435.175 FM
RS-15 21 Oct 21:35:49 21:38:57 12° 89° (E) 21:42:04 29.354 - 29.394 USB, Beacon 29.352 USB
ZACube-1 21 Oct 21:53:07 21:57:09 31° 62° (ENE) 22:01:08 437.345 MHz
STRAND 1 21 Oct 21:54:35 21:59:23 40° 298° (WNW) 22:04:10 ?
OPAL 21 Oct 21:56:08 21:58:12 13° 321° (NW) 22:00:15 ?
UKube-1 21 Oct 22:04:25 22:08:46 81° 72° (ENE) 22:13:11 145.840 MHz, 145.915 MHz
SO-50 21 Oct 22:33:27 22:38:16 77° 225° (SW) 22:43:08 436.795 FM
UOSAT-12 21 Oct 22:34:59 22:39:26 37° 23° (NNE) 22:43:50 437.025 FM, 437.400 FM
FUNcube-1 21 Oct 22:38:02 22:42:36 69° 71° (ENE) 22:47:07 145.950 - 145.970 MHz USB
HO-68 21 Oct 22:47:24 22:53:46 34° 267° (W) 23:00:13 435.675 MHz FM
Oscar 11 21 Oct 22:49:22 22:53:34 49° 260° (W) 22:57:48 145.825 FM, Beacon 2401.500 USB
KITSAT 1 21 Oct 23:23:04 23:30:30 42° 245° (WSW) 23:37:54 435.175 FM
ZACube-1 21 Oct 23:29:00 23:33:26 46° 261° (W) 23:37:49 437.345 MHz
STRAND 1 21 Oct 23:35:58 23:37:20 11° 320° (NW) 23:38:42 ?
RS-15 21 Oct 23:37:55 23:48:02 46° 115° (ESE) 23:58:10 29.354 - 29.394 USB, Beacon 29.352 USB
UKube-1 21 Oct 23:42:46 23:45:33 17° 272° (W) 23:48:21 145.840 MHz, 145.915 MHz
SO-50 22 Oct 00:14:57 00:18:11 18° 246° (WSW) 00:21:26 436.795 FM
UOSAT-12 22 Oct 00:15:14 00:20:00 79° 225° (SW) 00:24:42 437.025 FM, 437.400 FM
FUNcube-1 22 Oct 00:16:00 00:19:26 20° 271° (W) 00:22:50 145.950 - 145.970 MHz USB
MaSat-1 22 Oct 00:46:17 00:48:20 14° 109° (ESE) 00:50:18 437.345 MHz
Oscar 16 22 Oct 01:36:26 01:37:26 11° 80° (E) 01:38:25 437.025 USB, Beacon 2401.1428
RS-15 22 Oct 01:48:48 01:59:47 79° 322° (NW) 02:10:54 29.354 - 29.394 USB, Beacon 29.352 USB
UOSAT-12 22 Oct 01:56:20 01:59:29 18° 246° (WSW) 02:02:36 437.025 FM, 437.400 FM
MaSat-1 22 Oct 02:19:36 02:23:39 85° 126° (SE) 02:27:16 437.345 MHz
Oscar 19 22 Oct 02:28:02 02:32:19 26° 92° (E) 02:36:35 437.125 CW, 437.150 USB
JAS-1B 22 Oct 02:35:19 02:40:47 30° 93° (E) 02:47:00 435.800 - 435.900 CW/SSB
AO-27 22 Oct 02:38:26 02:41:37 16° 85° (E) 02:44:48 436.795 MHz FM
Oscar 10/S400 22 Oct 02:41:18 03:08:32 12° 242° (WSW) 03:48:49 145.825 - 145.975 CW/USB, Beacon 145.810 USB
Oscar 16 22 Oct 03:12:54 03:17:58 56° 101° (E) 03:23:00 437.025 USB, Beacon 2401.1428
Uribyol 2 22 Oct 03:26:51 03:31:42 37° 96° (E) 03:36:30 436.500 FM
ITAMSAT 1 22 Oct 03:32:03 03:36:56 38° 96° (E) 03:41:47 435.822 SSB
AO-Echo 22 Oct 03:33:00 03:38:08 49° 99° (E) 03:43:17 ?
Gurwin Techsat 1B 22 Oct 03:33:43 03:38:04 25° 90° (E) 03:42:23 435.225 FM
TMSAT-1 22 Oct 03:47:01 03:51:21 25° 90° (E) 03:55:38 436.925 FM
MaSat-1 22 Oct 03:56:51 03:59:46 20° 324° (NW) 04:02:27 437.345 MHz
RS-15 22 Oct 04:03:02 04:13:41 53° 354° (N) 04:24:35 29.354 - 29.394 USB, Beacon 29.352 USB
Oscar 19 22 Oct 04:07:01 04:12:05 62° 292° (WNW) 04:17:08 437.125 CW, 437.150 USB
AO-27 22 Oct 04:16:44 04:22:01 80° 106° (ESE) 04:27:16 436.795 MHz FM
OPAL 22 Oct 04:20:52 04:25:22 32° 55° (NE) 04:29:49 ?
AO-7 22 Oct 04:24:39 04:30:15 19° 83° (E) 04:35:50 29.400 - 29.500 MHz
JAS-1B 22 Oct 04:25:50 04:31:55 69° 292° (WNW) 04:39:02 435.800 - 435.900 CW/SSB
Oscar 16 22 Oct 04:52:38 04:57:07 31° 302° (WNW) 05:01:35 437.025 USB, Beacon 2401.1428
Sapphire 22 Oct 04:58:34 05:02:30 21° 109° (ESE) 05:06:27 437.095 MHz 1200 baud AX-25 AFSK
Uribyol 2 22 Oct 05:06:20 05:11:20 47° 296° (WNW) 05:16:17 436.500 FM
ITAMSAT 1 22 Oct 05:11:34 05:16:33 45° 297° (WNW) 05:21:30 435.822 SSB
AO-Echo 22 Oct 05:12:01 05:16:48 37° 299° (WNW) 05:21:38 ?
Gurwin Techsat 1B 22 Oct 05:13:14 05:18:33 69° 291° (WNW) 05:23:50 435.225 FM
Uosat F 22 Oct 05:15:43 05:19:45 23° 91° (E) 05:23:46 435.120 FM
PCSat 22 Oct 05:20:27 05:25:08 31° 115° (ESE) 05:29:51 145.825 MHz
TMSAT-1 22 Oct 05:26:29 05:31:47 70° 291° (WNW) 05:37:04 436.925 FM
Oscar 19 22 Oct 05:47:35 05:50:33 16° 313° (NW) 05:53:30 437.125 CW, 437.150 USB
JAS-2 22 Oct 05:53:09 05:59:15 25° 85° (E) 06:05:29 435.800 - 435.900 CW/SSB, 435.910 FM
AO-27 22 Oct 05:56:54 06:01:03 24° 307° (NW) 06:05:11 436.795 MHz FM
OPAL 22 Oct 05:58:58 06:04:02 58° 255° (WSW) 06:09:05 ?
STRAND 1 22 Oct 06:00:36 06:04:51 27° 56° (NE) 06:09:08 ?
AO-7 22 Oct 06:16:25 06:24:44 68° 106° (ESE) 06:33:01 29.400 - 29.500 MHz
RS-15 22 Oct 06:17:07 06:28:04 64° 26° (NNE) 06:39:22 29.354 - 29.394 USB, Beacon 29.352 USB
JAS-1B 22 Oct 06:17:37 06:21:48 20° 314° (NW) 06:26:20 435.800 - 435.900 CW/SSB
Sapphire 22 Oct 06:39:48 06:45:14 86° 130° (SE) 06:50:43 437.095 MHz 1200 baud AX-25 AFSK
Uribyol 2 22 Oct 06:47:27 06:49:40 13° 318° (NW) 06:51:53 436.500 FM
Hamsat 22 Oct 06:49:14 06:52:46 25° 92° (E) 06:56:16 145.90 MHz
ITAMSAT 1 22 Oct 06:52:47 06:54:53 13° 319° (NW) 06:57:00 435.822 SSB
AO-Echo 22 Oct 06:53:30 06:54:15 10° 320° (NW) 06:55:00 ?
Uosat F 22 Oct 06:53:59 06:59:03 69° 291° (WNW) 07:04:04 435.120 FM
Gurwin Techsat 1B 22 Oct 06:54:15 06:57:42 18° 312° (NW) 07:01:08 435.225 FM
PCSat 22 Oct 07:02:48 07:08:13 70° 316° (NW) 07:13:41 145.825 MHz
TMSAT-1 22 Oct 07:07:26 07:10:54 18° 312° (NW) 07:14:21 436.925 FM
JAS-2 22 Oct 07:37:39 07:45:14 84° 106° (ESE) 07:53:08 435.800 - 435.900 CW/SSB, 435.910 FM
STRAND 1 22 Oct 07:38:35 07:43:42 68° 256° (WSW) 07:48:52 ?
OPAL 22 Oct 07:42:36 07:44:01 11° 276° (W) 07:45:26 ?
AO-7 22 Oct 08:09:34 08:17:16 44° 310° (NW) 08:24:58 29.400 - 29.500 MHz
Sapphire 22 Oct 08:24:18 08:29:15 35° 334° (NNW) 08:34:14 437.095 MHz 1200 baud AX-25 AFSK
Hamsat 22 Oct 08:24:55 08:28:57 47° 292° (WNW) 08:32:58 145.90 MHz
RS-15 22 Oct 08:29:53 08:40:47 67° 235° (SW) 08:52:07 29.354 - 29.394 USB, Beacon 29.352 USB
SO-67 22 Oct 08:30:48 08:34:03 37° 97° (E) 08:37:18 435.3500 MHz FM
Uosat F 22 Oct 08:33:52 08:37:02 17° 312° (NW) 08:40:13 435.120 FM
PCSat 22 Oct 08:47:47 08:52:31 29° 340° (NNW) 08:57:17 145.825 MHz
MaSat-1 22 Oct 08:48:38 08:51:00 20° 36° (NE) 08:53:11 437.345 MHz
STRAND 1 22 Oct 09:21:29 09:23:54 13° 277° (W) 09:26:19 ?
JAS-2 22 Oct 09:23:12 09:29:40 34° 307° (NW) 09:36:27 435.800 - 435.900 CW/SSB, 435.910 FM
Saudisat 1A 22 Oct 09:33:52 09:37:50 34° 124° (SE) 09:41:51 436.775 MHz
AO-7 22 Oct 10:02:41 10:08:10 20° 335° (NNW) 10:13:39 29.400 - 29.500 MHz
SO-67 22 Oct 10:04:06 10:06:54 23° 297° (WNW) 10:09:42 435.3500 MHz FM
